Wind_Speed
9 8 7 7 7 7 8 8 8 8 8 8 8 7 7 7 6 6 6 5 5 5 5 6 6 7 6 7 7 7 7 6 7 6 6 6 5 5 8 8 8 7 7 6 5 4 3 2 2 3 3 3 3 3 3 4 3 4 4 4 5 5 5 5 5 6 5 5 5 5 6 6 6 6 7 7 7 7 7 8 9 10 10 11 11
9 9 8 7 7 7 8 8 8 7 7 8 7 6 6 6 6 6 5 5 5 5 5 5 6 7 6 6 6 6 6 6 6 7 6 6 5 5 9 10 9 8 8 7 6 6 5 4 4 4 3 3 3 3 3 4 4 4 4 4 4 4 4 5 6 6 6 6 7 7 7 8 8 7 8 7 7 8 8 9 10 11 11 12 12
9 8 8 7 7 7 7 7 7 7 7 7 6 6 6 5 5 5 5 4 5 5 5 5 5 5 5 5 5 5 5 5 6 6 6 6 5 5 7 9 10 9 8 8 8 8 8 7 7 7 7 6 6 5 5 5 5 5 5 5 5 5 5 6 6 7 7 7 8 8 9 9 9 8 7 7 7 9 10 10 11 11 11 11 12
8 8 8 7 7 7 7 7 7 6 6 6 5 5 5 5 4 4 4 3 4 4 4 4 5 4 4 5 4 4 4 4 4 5 5 5 5 5 5 6 8 9 9 8 8 9 9 9 9 9 8 8 8 7 7 7 6 6 7 7 7 7 7 7 7 7 8 8 9 9 10 10 9 8 7 8 9 10 10 11 11 11 11 11 11
7 7 7 7 7 7 7 6 6 6 5 5 5 4 4 4 3 3 3 2 3 4 3 4 5 3 3 5 4 4 4 4 4 4 4 4 5 5 5 4 5 7 9 9 9 9 9 9 9 9 9 9 8 8 8 8 8 8 8 8 8 8 8 8 8 8 9 9 10 10 10 9 9 8 9 9 10 10 10 10 10 10 10 10 10
7 6 6 7 7 7 6 6 5 5 5 4 4 4 4 3 3 3 2 2 3 3 3 4 4 3 4 4 5 4 4 4 4 4 4 4 5 5 5 5 4 4 5 8 9 9 9 9 9 9 9 8 8 8 8 8 8 8 8 8 8 8 8 8 9 9 10 9 9 10 9 10 10 9 10 10 10 10 10 9 9 10 10 10 10
6 5 5 6 6 7 6 6 5 4 4 3 3 4 4 3 3 2 2 2 2 3 3 3 3 4 4 4 5 4 4 5 4 5 5 5 5 5 5 4 4 4 3 4 6 8 8 8 8 8 7 7 7 7 7 7 7 7 7 7 7 7 7 8 9 9 10 9 9 10 10 11 11 11 10 10 9 9 9 9 9 9 9 9 10
4 4 4 5 6 6 6 5 5 4 4 4 4 4 4 4 3 3 3 2 2 3 3 3 3 4 4 4 5 4 4 5 4 6 6 5 6 6 5 5 5 4 4 4 4 5 7 7 7 6 6 6 6 7 7 7 7 7 6 6 6 6 6 7 8 9 9 8 9 10 11 11 11 11 10 9 9 9 9 8 7 7 8 9 10
4 4 4 4 5 6 6 5 5 4 4 4 5 4 4 4 4 4 3 2 3 3 3 3 3 4 5 5 5 5 5 5 5 6 6 5 5 6 5 5 5 4 4 4 3 3 5 6 6 6 6 6 6 7 8 8 8 7 6 6 6 5 6 7 8 8 7 8 9 10 10 10 10 9 9 9 9 8 8 7 7 8 9 10 11
4 4 4 4 5 5 6 5 5 4 4 4 5 4 4 4 4 4 3 3 3 4 4 3 2 4 6 6 5 5 5 5 5 5 5 6 5 5 5 5 4 4 3 3 4 3 2 4 4 5 6 7 7 8 9 9 8 8 7 7 6 6 6 6 6 6 7 8 8 9 9 9 9 9 9 9 8 8 8 8 8 9 10 11 12
5 5 4 4 5 5 5 5 5 4 4 5 5 4 4 4 4 4 3 3 4 4 4 3 4 5 6 7 6 5 5 5 5 5 5 6 5 5 5 5 4 4 3 3 3 3 2 2 3 3 5 7 8 8 9 9 9 8 8 7 7 6 6 5 5 6 7 8 8 9 9 9 9 9 9 9 9 9 9 9 9 10 11 12 14
6 6 5 5 4 5 5 5 5 4 4 4 4 4 4 4 4 4 3 3 4 4 4 4 5 6 5 7 6 6 6 5 5 5 5 6 5 4 5 5 4 3 3 3 3 3 3 2 3 3 4 5 8 9 10 11 11 9 8 7 7 6 6 6 7 8 9 9 10 10 10 10 10 10 11 11 10 10 10 10 11 11 12 14 15
6 6 5 5 5 5 5 5 4 4 4 4 4 4 4 3 3 3 4 4 4 5 5 4 5 5 5 7 7 7 6 5 5 6 6 6 5 5 4 5 5 4 4 4 3 2 3 4 4 4 4 5 7 9 10 12 11 9 8 8 8 8 9 10 10 11 12 12 12 12 12 12 12 12 12 12 11 11 11 11 12 13 15 16 17
7 6 6 5 5 5 5 4 4 4 4 4 4 4 4 3 3 3 4 5 5 7 6 3 4 6 5 6 8 8 7 5 6 6 6 6 6 5 4 5 5 5 5 5 4 4 5 5 5 5 5 5 5 6 8 9 9 9 10 10 11 11 11 11 12 13 14 14 14 14 14 14 14 14 14 13 13 12 12 12 13 14 16 17 18
7 7 6 6 6 5 5 4 4 4 4 4 4 3 3 3 3 4 4 4 5 7 8 6 5 5 4 4 5 6 6 6 7 6 6 5 5 6 5 6 7 6 5 5 5 5 5 6 5 5 5 5 5 5 6 6 8 10 11 11 11 11 11 11 12 13 13 14 14 15 15 16 16 16 15 15 14 14 13 13 13 14 16 17 18
7 7 6 6 6 5 5 4 4 3 3 3 3 3 3 2 3 4 5 4 5 7 8 8 7 5 3 3 4 4 4 6 7 5 6 6 5 6 5 6 7 5 4 5 5 5 5 5 5 4 4 4 4 5 4 5 6 9 10 9 9 9 10 10 10 11 12 13 13 14 15 15 15 15 15 15 15 15 14 14 14 14 15 16 17
7 7 6 6 6 5 5 5 4 3 3 3 3 3 3 3 3 4 5 5 5 5 6 8 8 7 5 4 4 4 3 4 6 4 4 6 6 7 4 4 7 4 3 5 4 3 4 5 5 4 4 4 4 4 4 4 4 5 6 6 7 8 8 9 9 10 11 12 12 13 13 14 14 14 14 14 14 14 14 14 14 14 15 16 17
7 6 6 6 6 5 5 4 4 4 3 2 2 2 2 3 3 4 5 6 5 4 5 7 7 6 7 7 5 5 4 3 3 3 4 5 5 6 4 3 6 5 3 4 4 3 4 4 5 4 4 3 3 4 4 4 4 4 4 6 7 7 7 8 9 10 11 12 12 13 13 13 13 13 13 13 13 13 14 13 14 14 15 16 17
7 6 6 6 6 5 5 4 4 4 3 2 2 2 2 2 3 4 4 5 6 4 3 5 5 5 6 7 7 7 7 6 4 3 3 3 2 4 6 5 5 5 3 4 5 6 4 3 5 5 4 3 3 2 3 3 3 4 5 6 7 7 7 8 9 10 11 12 13 13 13 13 13 13 13 13 13 13 14 14 14 14 15 16 17
6 6 6 6 6 5 5 4 3 3 3 2 2 2 2 2 3 3 3 4 5 4 4 3 4 6 6 6 7 6 6 6 6 3 1 2 3 3 5 5 5 5 4 4 5 6 4 3 4 5 4 3 2 2 2 2 2 2 4 6 6 6 7 7 8 9 10 11 12 13 13 13 13 13 13 13 13 13 14 14 15 15 15 16 17
6 6 6 5 5 5 4 4 3 3 3 2 2 2 2 2 2 2 3 3 4 4 4 4 5 6 6 6 6 5 4 4 4 3 3 2 2 3 4 4 5 4 2 3 4 3 4 2 1 2 3 3 2 2 2 2 2 2 4 6 6 6 7 7 8 9 9 10 11 12 13 13 13 13 13 13 13 13 13 14 15 16 16 16 16
6 6 6 5 5 5 4 4 4 3 2 2 2 2 2 2 1 2 2 2 3 3 3 4 5 5 5 5 5 4 4 3 3 4 4 2 1 2 4 3 4 3 2 3 3 2 3 2 1 3 4 3 3 2 2 2 3 3 4 6 7 7 8 8 9 9 10 10 11 11 12 13 13 13 14 13 13 13 13 14 15 16 17 17 17
6 6 6 6 5 5 4 4 3 3 2 2 2 2 3 3 2 1 1 2 2 3 3 3 3 4 4 4 3 3 4 4 4 4 3 3 4 2 3 2 1 3 2 2 2 2 2 3 4 5 5 4 3 3 3 3 3 5 6 7 7 8 9 10 10 11 11 11 12 12 12 13 13 14 14 14 14 13 13 14 14 16 17 18 17
6 6 6 6 6 5 4 4 3 3 3 3 3 2 2 3 3 2 1 0 1 2 3 3 3 3 3 3 3 3 3 4 4 3 3 4 5 4 4 4 3 1 3 1 2 2 2 5 7 7 5 6 5 4 4 4 5 8 8 8 8 8 9 11 11 11 12 13 13 14 14 14 14 14 14 14 14 14 13 14 14 16 17 18 18
6 6 6 7 6 5 5 4 4 3 3 3 3 3 3 3 3 3 2 2 1 2 3 3 3 3 3 3 4 3 3 3 3 3 2 2 3 4 5 6 6 2 2 1 4 3 1 3 4 5 5 6 6 4 5 5 6 8 9 7 8 8 9 11 11 12 14 15 16 16 15 14 13 13 14 14 14 14 14 14 14 16 17 18 18
6 6 5 6 6 5 5 5 4 4 4 3 3 4 4 4 3 3 3 2 2 2 2 3 3 3 4 4 4 4 3 3 3 3 3 3 3 4 5 6 8 6 1 2 4 3 1 1 1 2 3 6 6 5 5 6 6 9 9 8 8 9 10 11 12 13 15 16 17 17 16 13 12 13 13 13 13 13 13 14 14 15 17 18 19
5 5 5 5 5 5 5 5 5 4 4 4 4 4 5 4 4 4 4 3 3 3 3 3 3 3 4 4 4 4 4 4 3 3 4 4 5 5 4 4 6 8 5 4 5 3 1 2 2 1 2 6 7 6 6 7 7 9 11 9 9 10 12 13 14 15 16 16 17 17 15 12 12 13 13 13 13 13 13 13 14 15 17 18 19
4 4 5 5 5 6 6 6 5 5 4 5 5 5 5 5 5 5 5 4 3 3 3 3 4 4 4 4 5 5 4 4 4 4 4 4 5 4 4 4 4 5 5 5 5 5 5 5 3 1 2 7 9 8 8 8 8 10 11 9 9 11 12 14 16 16 16 17 17 17 15 13 12 13 13 14 14 14 14 14 14 15 16 18 18
5 5 5 5 6 6 6 6 6 5 5 5 6 6 5 5 5 5 5 5 4 4 4 4 4 4 4 4 4 5 5 4 5 5 3 4 5 4 4 4 4 4 4 3 4 7 8 9 7 4 5 8 10 9 9 8 10 12 11 10 11 11 14 17 17 16 17 18 17 17 16 14 13 13 14 15 15 16 16 15 15 15 16 17 18
6 5 5 6 6 7 7 6 6 6 6 6 6 6 6 6 5 6 6 5 5 5 5 5 5 5 4 4 4 4 5 5 6 6 5 4 5 6 5 5 5 5 6 5 5 7 9 9 10 9 9 10 10 9 9 8 10 12 11 11 12 12 16 18 16 16 17 18 17 17 16 15 14 15 15 15 16 16 16 16 16 16 16 17 17
7 6 6 7 7 8 8 8 7 7 7 7 7 7 7 7 6 6 6 6 6 6 6 6 6 5 5 5 5 5 5 5 6 6 6 6 6 7 6 6 6 6 7 7 6 7 9 10 11 10 11 10 10 10 10 9 10 12 11 11 12 14 17 17 15 15 17 18 17 16 16 16 16 16 16 16 17 16 16 15 14 15 16 17 17
8 8 8 8 8 9 9 9 8 8 8 8 7 8 8 7 6 6 4 5 5 6 6 6 5 5 5 5 5 5 5 5 6 6 6 7 7 7 7 7 7 7 7 7 8 8 10 11 12 11 11 11 10 10 10 10 11 12 12 12 13 15 16 15 14 15 15 16 17 16 16 16 16 16 16 16 16 16 15 14 14 14 15 16 16
8 9 9 9 9 9 9 9 8 8 8 7 7 8 8 8 7 7 5 5 6 6 6 6 6 5 5 6 6 6 6 6 6 7 7 7 7 7 7 7 7 7 6 7 9 10 10 10 11 11 11 11 10 10 11 12 12 12 13 13 14 14 14 13 14 14 13 14 16 15 15 16 15 15 15 15 15 16 16 16 16 16 16 16 17
9 9 10 10 9 9 9 8 8 8 7 7 8 8 8 8 8 8 7 7 7 7 6 6 6 6 6 6 6 6 6 6 6 7 7 7 7 7 7 7 7 7 7 8 9 10 11 11 11 12 11 10 10 10 11 12 12 12 12 13 12 13 12 12 13 12 11 12 15 14 14 14 14 13 14 15 16 17 17 17 18 17 17 17 17
10 10 10 10 10 9 9 8 8 8 8 8 8 8 7 7 7 7 7 7 7 7 7 7 7 6 6 6 6 6 6 6 6 6 7 7 7 7 7 8 8 8 8 8 8 10 11 11 11 12 11 10 10 11 10 10 11 11 12 12 12 12 12 12 13 12 11 14 16 15 14 14 13 12 13 14 15 16 16 16 15 15 15 15 15
10 10 10 10 10 10 9 9 9 8 8 8 9 8 8 8 8 8 7 7 8 8 8 7 7 6 6 6 6 6 5 5 6 6 6 6 6 6 7 7 8 8 8 8 9 10 11 12 12 11 11 11 10 10 10 10 10 11 12 12 12 13 12 12 13 12 13 15 16 15 16 16 15 15 15 15 14 14 14 13 13 13 13 13 14
10 10 10 10 10 10 10 10 10 10 9 9 9 9 9 8 8 8 8 8 8 8 8 8 7 7 7 7 6 6 6 6 6 6 5 5 5 6 6 6 6 7 7 8 9 9 11 12 12 11 11 11 10 9 9 10 11 11 12 12 12 12 12 12 13 13 14 15 14 15 16 16 16 18 18 18 17 15 13 13 13 13 13 13 14
12 11 11 11 11 11 11 10 10 10 10 10 10 9 9 9 9 9 9 8 8 8 8 8 8 8 8 7 7 6 6 7 6 6 5 5 6 6 6 6 7 7 7 8 8 9 10 11 12 12 11 10 10 9 9 9 11 12 12 12 12 11 11 12 13 13 14 15 14 15 15 15 16 18 19 20 20 19 16 15 14 13 12 12 13
13 12 12 12 11 11 11 11 11 11 10 10 10 10 10 9 9 9 9 9 9 8 8 8 8 8 8 8 8 7 7 7 6 6 6 6 6 6 6 6 7 8 9 9 9 9 10 11 12 11 11 10 10 11 10 9 10 11 11 12 13 12 12 12 13 14 15 15 16 16 15 16 18 18 19 20 21 21 20 18 16 13 12 13 13
14 13 13 12 12 12 12 12 11 11 11 11 11 10 10 10 9 10 9 9 9 8 8 8 8 8 8 9 9 8 8 7 6 6 6 6 6 6 6 7 7 8 9 9 9 10 10 11 12 11 11 11 11 11 10 9 10 11 12 13 14 14 14 14 14 15 16 16 16 16 16 17 19 19 19 20 21 21 20 19 16 12 13 15 15
13 13 12 12 11 11 11 11 11 11 11 11 11 11 10 9 9 9 9 9 9 8 8 8 8 8 8 9 9 8 7 8 8 9 8 8 8 8 8 7 8 9 9 9 10 10 10 11 12 12 12 12 11 11 11 10 12 13 13 13 14 15 16 17 16 15 15 16 17 18 17 18 20 21 20 19 19 18 18 18 13 10 13 18 16
11 11 11 11 10 10 10 10 11 11 11 11 12 12 11 9 9 9 8 8 8 8 8 8 8 9 9 9 9 8 9 11 11 10 9 9 9 9 10 9 9 10 10 11 11 11 11 12 12 12 13 13 12 12 12 13 14 14 14 14 15 16 17 17 17 15 14 15 18 20 21 20 21 22 21 19 19 18 17 16 13 13 17 19 17
10 9 10 10 10 11 10 10 11 11 11 10 11 12 12 11 10 9 9 10 9 9 9 10 9 9 10 9 9 9 10 11 9 7 8 10 9 9 10 10 11 11 11 12 12 11 12 12 13 13 13 14 13 13 15 16 15 14 14 14 15 16 16 16 16 16 15 15 17 21 23 22 21 21 21 21 20 19 17 16 17 20 21 19 17
9 9 9 9 10 10 9 10 10 9 8 10 12 12 12 12 11 11 11 11 11 11 11 10 10 9 9 9 9 9 9 9 9 8 9 10 10 10 10 11 11 12 12 13 13 12 12 13 14 14 14 14 14 14 15 16 15 15 15 15 15 16 16 16 17 18 18 17 19 22 24 23 21 21 22 21 20 20 19 18 20 22 21 19 18
7 8 9 9 9 9 9 9 7 5 7 11 12 12 12 12 11 11 11 11 11 11 11 10 10 9 8 8 9 9 8 8 8 8 8 9 10 10 11 12 13 13 13 13 13 14 14 14 14 15 15 15 15 15 15 15 16 17 17 17 17 17 18 18 19 21 22 20 20 22 24 22 20 20 21 21 20 20 20 19 20 21 22 21 20
6 8 10 10 9 9 8 7 5 5 9 10 9 10 10 10 10 10 10 11 12 11 10 10 9 9 8 8 8 8 8 7 6 7 6 7 8 9 10 12 13 13 14 15 15 15 15 15 15 16 16 15 16 16 15 14 14 15 15 17 18 18 19 20 21 23 24 22 20 21 22 21 19 20 21 21 21 21 20 19 20 21 23 23 21
12 10 10 10 9 8 7 6 4 3 6 8 7 8 9 9 9 9 8 10 11 10 9 8 7 7 7 8 8 8 7 6 7 9 8 7 8 9 10 12 13 13 15 16 16 15 15 15 15 16 16 15 15 16 15 14 15 17 18 19 20 19 20 21 22 22 22 20 18 18 20 21 19 19 21 21 21 21 20 19 20 21 22 23 21
12 10 9 9 8 6 5 6 5 2 2 5 6 6 7 7 8 7 7 9 9 9 8 6 6 6 5 5 6 7 5 6 9 11 10 9 9 9 10 12 13 14 15 15 16 17 17 16 16 17 17 18 18 18 19 19 20 21 20 19 19 19 20 20 21 21 20 18 16 16 20 22 20 19 21 21 21 21 21 19 19 19 20 20 19
11 10 9 8 8 8 7 7 6 3 1 4 4 5 6 6 6 7 7 7 7 7 7 6 5 4 4 4 4 4 3 5 8 10 9 8 7 8 9 11 12 14 15 15 16 17 15 15 16 18 19 20 21 21 21 22 21 20 18 17 17 18 19 19 19 19 19 18 16 16 19 22 20 19 21 21 21 21 21 20 18 17 17 18 19
14 14 13 11 9 9 8 7 6 5 3 1 2 3 5 6 7 6 6 7 7 7 6 6 4 3 3 4 3 3 4 6 7 9 9 8 8 8 10 11 12 13 14 14 14 14 13 14 16 18 19 20 20 21 22 22 21 19 17 18 17 18 20 19 18 18 19 20 18 14 14 19 20 19 20 21 21 20 19 17 16 16 17 18 19
16 15 14 13 13 12 10 9 8 8 7 6 3 2 1 3 5 3 3 6 6 5 5 5 4 1 2 2 3 3 5 7 9 9 9 9 9 10 10 11 12 12 13 13 13 13 14 15 16 17 19 19 20 20 21 21 21 19 19 18 17 17 18 18 17 17 16 16 14 9 10 15 18 18 19 19 17 17 17 16 16 17 19 19 19
Wind_Direction
108 107 109 110 111 111 110 110 111 112 113 112 109 109 108 105 102 97 95 95 101 108 109 111 106 99 99 99 99 96 98 97 96 100 96 105 107 58 61 72 69 67 68 69 74 71 70 65 44 30 17 10 14 3 356 356 0 356 343 339 340 338 338 345 347 349 353 351 348 347 346 341 330 326 322 317 315 312 310 305 301 302 302 299 297
108 109 111 110 110 109 107 110 112 114 114 110 107 106 103 100 97 94 92 93 100 105 103 106 103 101 102 103 104 101 101 105 103 105 99 99 111 75 61 68 67 63 63 60 60 58 58 58 50 42 34 34 30 24 18 13 17 11 360 359 357 353 357 7 6 0 359 356 353 352 349 342 330 321 318 317 316 313 309 305 303 302 302 301 298
107 111 114 113 110 107 107 111 111 111 108 103 101 98 97 96 93 91 88 95 103 104 106 107 103 105 110 105 103 103 101 109 108 101 97 94 104 98 66 63 65 65 65 62 61 60 59 56 53 51 49 47 44 39 38 34 34 31 28 29 24 21 21 21 14 5 2 359 356 353 348 338 329 323 325 334 333 324 314 310 310 307 305 304 303
108 111 113 113 110 106 105 107 107 105 99 98 99 96 100 99 91 83 80 98 107 107 115 109 100 103 111 107 101 104 101 103 102 94 96 97 97 104 87 65 63 65 66 66 65 63 62 61 58 56 54 53 50 47 45 45 46 45 43 40 36 33 29 25 17 9 4 1 357 351 343 335 330 333 342 347 337 327 321 318 317 315 313 314 313
113 112 114 112 109 107 105 102 100 98 98 101 103 103 107 107 96 79 80 105 112 111 121 106 100 101 101 103 97 97 105 102 98 96 99 104 99 96 100 94 75 66 65 66 67 67 65 65 63 60 58 56 54 52 51 51 51 49 48 44 41 37 32 27 19 13 8 1 356 348 343 342 343 349 350 342 333 329 327 326 324 322 322 321 320
118 115 114 114 111 108 103 100 98 100 102 102 102 103 103 103 98 86 85 107 112 110 105 100 109 106 88 92 94 91 99 91 90 96 93 97 102 98 98 102 99 88 74 64 61 64 67 66 64 61 58 55 53 51 50 50 50 48 46 43 40 36 31 26 19 13 7 1 355 348 348 353 355 355 347 340 337 336 336 336 333 331 331 328 327
118 115 112 113 112 107 103 103 102 101 98 86 83 91 89 83 79 82 93 98 106 107 100 101 112 107 99 93 92 91 91 86 86 100 100 100 99 100 100 97 97 102 101 77 60 59 66 67 63 59 56 51 48 46 45 44 42 40 37 33 30 26 22 18 13 10 6 2 357 352 354 356 355 351 346 346 348 347 348 348 345 343 342 340 339
117 113 107 108 112 110 109 108 107 103 91 78 80 83 81 72 53 56 74 75 92 108 111 111 110 110 116 107 94 92 91 88 90 92 95 103 105 104 101 97 95 91 98 100 80 65 65 65 61 57 52 44 40 37 35 33 30 25 21 17 12 8 8 7 5 6 8 6 1 358 359 356 354 353 354 359 1 359 1 1 359 358 356 354 350
121 120 111 111 117 115 115 114 111 105 91 82 85 83 79 73 49 36 45 55 75 90 94 98 112 115 108 99 97 98 91 83 88 95 98 103 107 108 105 103 100 94 96 98 99 84 60 56 57 55 45 36 33 31 28 24 20 14 6 2 360 356 356 358 0 6 12 9 4 2 1 1 2 6 9 12 13 14 19 20 15 11 7 2 358
126 128 122 119 122 118 119 121 118 112 103 98 93 84 79 77 59 34 26 37 50 56 64 68 94 106 101 97 95 96 94 94 97 104 110 107 105 109 107 105 101 96 98 95 99 97 50 35 43 46 36 31 30 27 26 22 12 3 0 3 6 6 3 1 7 16 19 14 11 11 13 18 22 25 26 26 30 33 35 32 23 17 13 10 6
133 136 132 130 130 124 124 129 126 120 116 111 101 91 79 69 60 31 10 36 44 45 54 60 78 82 90 96 96 94 93 104 112 110 110 109 112 117 113 108 107 106 103 103 100 87 63 28 24 35 30 28 32 32 28 19 10 6 12 19 20 19 18 22 31 32 31 28 27 28 30 36 38 39 40 42 45 45 42 37 29 24 19 17 14
140 141 140 139 133 131 133 134 133 124 115 110 100 92 77 63 54 23 11 50 54 54 57 63 82 86 95 97 96 100 99 104 117 117 117 114 113 112 111 109 108 107 98 93 92 80 72 56 42 54 40 25 26 28 26 19 17 25 33 37 41 48 53 56 56 51 48 46 42 40 40 44 46 47 48 50 51 49 47 41 35 31 27 24 19
141 141 142 140 132 133 134 133 134 121 109 101 89 84 77 67 50 18 27 50 47 58 64 69 94 102 113 108 98 97 105 118 124 122 121 119 114 108 109 113 108 106 103 91 91 95 90 76 57 54 42 27 22 17 21 20 20 38 54 61 69 73 72 68 63 59 55 51 46 43 42 44 46 47 48 49 50 49 47 43 39 35 31 28 22
140 140 140 138 134 133 131 130 127 117 109 100 89 83 80 64 48 34 40 56 57 57 48 39 92 97 101 114 109 100 97 107 114 117 117 117 117 113 110 111 105 101 102 96 88 86 85 77 62 52 36 26 26 22 29 28 30 54 73 77 78 74 70 66 61 58 53 49 45 41 40 40 41 43 44 44 44 45 44 40 37 34 32 30 25
142 141 138 136 135 136 134 132 128 123 115 103 97 94 90 68 55 45 35 61 84 72 49 31 58 89 101 110 112 105 99 97 96 101 110 114 116 115 108 104 103 100 100 96 90 84 81 73 59 47 33 26 28 32 46 48 51 70 80 78 73 67 63 59 54 51 48 44 40 36 35 35 36 37 38 39 38 38 38 36 33 31 30 29 25
148 145 141 139 138 140 139 138 134 130 118 107 108 110 107 85 62 43 32 49 81 84 66 49 52 57 77 102 97 90 96 103 98 96 111 116 112 107 104 106 105 102 99 95 90 86 82 74 63 47 36 36 37 39 51 56 59 71 74 72 68 60 54 48 42 39 36 34 31 29 29 29 30 31 32 33 32 32 33 32 30 26 24 22 20
155 151 144 141 142 141 139 141 140 134 124 108 101 107 111 95 70 48 44 47 57 80 78 64 60 52 50 68 78 72 61 89 93 73 85 107 108 101 99 110 106 97 92 95 89 85 86 79 68 59 52 46 44 50 56 58 61 64 59 57 59 52 43 36 28 23 20 19 16 14 16 18 19 20 22 24 23 24 25 26 25 20 17 16 14
164 156 146 143 142 141 139 141 139 134 125 108 101 114 115 90 64 49 51 51 45 69 89 78 66 60 67 68 56 57 45 41 87 84 70 86 107 115 113 106 106 108 113 116 113 91 79 83 80 71 68 70 65 66 71 68 67 70 58 49 46 41 33 25 18 14 11 9 8 6 3 3 3 4 8 10 11 12 13 15 17 15 11 9 9
173 165 153 146 143 143 144 142 139 137 126 120 123 117 99 72 54 45 43 51 49 44 71 83 79 64 66 69 58 55 49 34 52 100 99 82 91 116 113 113 121 122 117 120 113 89 56 54 83 74 62 74 87 81 79 71 60 54 43 37 33 27 22 17 12 9 6 4 3 2 359 355 352 350 352 354 356 359 359 1 4 5 4 3 3
178 173 166 155 149 150 152 148 145 139 139 144 141 103 76 61 48 39 28 42 52 46 38 39 69 70 52 48 54 53 52 48 47 41 57 110 119 105 101 116 116 100 96 94 88 89 74 28 51 65 52 55 89 89 76 59 44 26 9 12 17 12 8 6 4 2 358 358 357 355 354 352 348 344 341 342 344 345 348 349 352 353 355 356 356
185 183 179 170 163 160 159 159 155 148 155 159 138 116 83 71 49 26 20 27 37 46 45 20 30 55 46 35 41 45 47 54 65 58 36 57 115 114 110 119 98 72 69 85 74 87 96 57 40 91 60 43 53 52 56 34 17 3 345 355 2 358 356 354 352 351 347 346 347 347 348 347 346 344 339 336 334 335 338 341 344 345 346 349 349
189 189 189 187 179 174 172 169 166 163 167 164 143 147 146 126 92 24 7 6 19 27 39 36 30 34 39 35 27 35 41 27 45 60 41 6 337 117 118 119 106 88 26 39 38 34 68 45 358 50 28 19 28 18 24 16 359 350 335 342 350 346 344 344 341 341 340 336 336 337 340 342 343 342 339 335 330 329 331 334 338 340 341 343 343
188 189 192 195 191 188 185 178 174 173 174 176 179 181 172 161 151 114 8 345 354 10 13 22 25 16 28 34 16 29 36 14 30 40 16 2 343 352 70 41 89 124 89 30 348 344 30 19 20 34 4 339 355 355 356 356 330 327 329 332 338 336 333 334 332 333 336 335 332 329 331 334 335 336 335 334 331 327 327 330 333 336 337 339 340
191 191 193 194 194 194 195 190 184 187 186 178 186 193 181 165 165 173 172 274 324 350 351 347 353 351 1 10 358 22 29 6 23 36 21 23 348 325 20 5 316 115 86 15 287 296 29 25 16 21 356 327 333 333 332 334 312 315 324 324 328 331 328 328 328 329 331 332 333 329 326 326 329 332 333 333 333 330 328 328 330 333 334 335 337
199 197 196 191 193 197 199 198 194 195 194 185 189 195 194 184 179 191 203 200 239 311 325 326 331 326 333 347 342 350 11 4 3 1 8 25 326 323 7 343 301 308 66 333 292 288 58 43 3 7 353 317 312 321 323 327 312 310 317 318 322 328 325 323 324 326 327 328 330 330 327 323 324 329 331 332 333 332 330 329 327 329 331 333 335
205 203 201 195 196 197 198 202 199 199 201 197 198 197 197 201 201 206 215 212 222 261 297 306 305 301 308 317 320 328 337 338 337 337 337 342 341 357 9 330 303 301 257 222 271 278 42 35 310 12 350 311 316 326 317 323 312 306 318 321 316 320 322 323 323 323 326 327 327 328 327 323 322 326 330 331 331 330 329 328 326 326 329 331 334
205 204 206 204 204 202 201 203 201 203 210 206 204 205 204 206 212 220 224 222 229 252 278 289 286 282 287 293 298 304 311 313 316 329 341 343 351 2 360 334 313 310 309 304 299 289 306 318 272 239 319 314 323 319 315 323 303 303 325 328 315 315 316 321 326 325 327 327 324 325 326 323 321 323 327 328 327 325 323 323 323 323 326 329 332
202 202 205 207 209 208 205 203 203 208 212 209 208 208 209 213 217 223 229 231 232 246 263 270 274 276 274 277 286 287 289 301 304 314 337 340 340 346 340 332 323 313 313 318 313 302 311 317 289 234 315 320 321 312 312 315 294 302 324 321 314 316 309 314 324 326 327 327 322 322 321 319 319 319 322 325 324 321 317 316 316 316 320 324 327
203 201 201 204 208 205 204 204 206 210 210 208 211 210 211 219 223 226 232 235 236 246 255 258 259 265 270 268 273 279 280 282 280 286 301 311 313 316 317 321 319 312 309 313 307 300 306 312 307 312 332 325 319 309 308 306 296 306 318 312 311 310 302 311 320 321 327 327 321 319 318 315 314 314 317 323 324 322 317 313 312 312 314 318 323
203 202 198 198 201 200 204 207 207 210 210 205 207 210 215 223 226 229 235 238 245 251 252 256 256 254 260 264 269 274 277 277 273 274 276 280 290 294 294 298 299 302 307 309 304 301 303 305 306 315 324 323 320 314 314 310 302 309 316 311 308 303 304 314 319 319 325 326 321 318 316 312 310 310 313 318 322 321 319 315 313 312 312 316 320
205 205 202 197 197 198 202 210 210 208 208 206 207 208 214 222 228 231 230 229 241 253 254 254 254 250 249 255 263 269 275 282 282 277 274 272 277 282 283 287 289 293 301 301 297 301 305 305 307 312 313 315 317 315 317 315 310 315 317 310 307 306 310 316 318 316 321 324 323 320 317 314 310 309 310 313 315 316 318 318 315 315 316 318 321
205 205 206 202 198 198 202 208 210 207 206 208 207 207 212 217 225 231 222 213 230 247 251 253 254 252 250 253 256 259 264 271 275 276 272 266 269 274 278 281 283 284 289 293 293 298 302 305 307 310 311 313 314 313 313 311 310 314 314 309 308 309 310 311 313 312 313 321 326 322 319 317 313 312 311 309 311 313 316 317 316 317 317 318 320
204 200 201 203 202 204 206 207 208 205 203 209 209 207 212 214 220 227 219 215 229 239 242 247 250 248 249 253 255 257 259 260 265 270 271 266 262 264 268 272 277 283 286 289 293 297 303 308 309 309 313 314 311 311 312 310 310 312 312 310 308 307 307 308 312 308 303 317 329 326 323 322 319 318 314 310 310 312 314 315 314 313 313 313 313
202 199 198 200 202 205 209 207 208 205 202 209 214 212 214 216 220 225 221 219 227 232 235 239 241 240 240 246 251 252 251 251 258 265 270 273 273 272 271 274 280 285 288 290 292 295 300 308 310 309 310 311 310 312 312 310 312 313 312 312 311 310 310 311 313 306 299 315 329 329 329 329 326 325 321 317 316 315 315 314 312 311 311 311 310
202 203 202 199 198 202 208 205 204 207 205 210 216 215 217 220 226 232 229 224 227 230 232 234 234 235 235 238 244 247 245 243 251 262 270 273 276 279 278 278 281 282 285 286 285 289 296 303 307 308 311 312 309 310 309 308 310 311 311 312 312 312 313 312 311 306 302 312 323 330 332 332 332 333 333 331 327 323 320 318 317 316 316 316 314
205 205 206 203 198 198 205 205 204 208 209 210 214 215 219 223 228 235 234 231 233 235 235 236 236 234 236 238 240 240 240 240 245 253 260 263 266 272 271 270 272 275 280 279 276 281 289 295 299 303 307 308 304 306 310 309 308 309 309 310 309 310 311 310 309 308 307 310 318 327 329 329 332 333 334 338 338 333 329 327 328 327 326 325 322
207 205 207 206 203 202 206 208 207 209 210 212 216 219 220 221 223 227 230 230 233 235 236 238 239 238 240 241 239 237 236 239 244 247 249 254 261 266 268 271 274 277 279 279 278 280 282 288 295 298 299 299 298 303 309 309 309 310 309 307 308 310 312 311 311 313 313 314 321 325 324 325 326 324 325 331 336 335 332 331 333 333 333 331 327
210 207 206 206 207 208 210 211 210 211 213 216 219 222 224 222 221 224 227 229 231 234 236 237 237 237 238 238 239 240 239 241 247 251 251 254 259 263 267 273 277 279 279 278 277 278 280 284 289 291 293 295 297 301 304 306 307 309 310 311 311 313 316 317 316 316 317 317 318 318 316 317 320 319 318 322 327 330 330 328 329 332 335 336 333
214 213 211 209 208 210 213 215 215 215 216 218 219 223 226 225 222 225 228 228 229 230 233 237 239 237 235 236 236 236 239 244 248 251 252 254 257 260 264 268 272 276 279 280 280 280 281 283 285 287 291 295 297 299 300 298 296 300 307 312 313 314 317 318 315 314 315 313 311 311 311 313 316 316 314 316 321 323 324 326 326 328 333 336 334
220 220 219 216 213 214 217 219 222 220 218 220 221 221 226 228 227 227 229 232 232 231 232 234 237 237 236 235 235 234 234 235 242 252 256 259 262 264 267 271 275 277 280 284 285 284 283 284 285 288 292 293 294 296 299 300 298 302 309 311 309 309 311 312 310 309 310 309 309 312 314 314 314 314 313 312 313 314 315 320 322 321 325 326 324
226 227 228 227 222 221 222 223 228 229 225 223 222 220 222 225 230 232 232 234 237 238 239 240 240 240 239 239 238 236 229 231 247 260 262 259 263 267 270 273 276 278 282 284 285 284 284 285 286 288 290 290 291 295 301 304 303 304 309 309 307 308 311 310 307 306 306 306 308 311 314 314 311 309 308 305 304 302 302 307 308 304 312 316 315
231 230 230 232 230 228 227 227 230 232 233 230 223 221 224 225 230 236 235 236 241 243 245 246 246 244 243 244 243 240 243 254 264 268 267 262 262 264 267 269 272 277 280 281 280 282 283 285 287 288 289 290 294 301 303 302 302 305 309 310 308 309 312 309 307 307 306 304 304 306 309 311 309 305 303 301 300 298 297 295 286 281 297 307 309
227 228 229 232 235 234 232 231 231 232 234 230 221 225 237 243 241 242 241 239 239 241 242 243 246 247 247 248 246 242 246 257 265 271 275 274 271 268 268 268 269 270 272 274 276 278 281 282 284 286 289 292 296 301 300 300 305 308 309 307 304 304 305 304 303 306 306 304 302 300 302 307 306 300 297 299 299 297 296 290 282 284 295 304 307
222 224 230 231 233 234 233 234 236 232 226 226 229 238 250 255 250 247 246 245 242 241 241 242 245 250 252 253 255 253 248 249 255 262 269 273 273 271 270 270 268 266 264 264 266 269 273 278 282 283 286 291 294 296 298 303 307 306 302 299 297 296 296 296 297 299 301 304 300 296 298 302 302 296 294 296 298 298 297 292 286 288 294 303 307
228 227 226 224 226 230 232 233 232 225 227 233 241 247 250 251 249 245 245 248 248 246 245 245 247 250 256 258 261 264 262 260 261 259 255 259 267 273 274 273 271 270 268 267 264 263 264 266 271 275 278 283 287 289 293 299 299 297 295 295 294 293 292 292 292 293 296 299 297 294 296 298 299 297 296 297 300 300 298 293 289 288 292 301 307
210 225 223 219 219 221 221 215 203 219 234 237 242 244 243 245 245 241 244 248 249 247 246 248 250 251 254 259 262 266 268 267 262 256 254 260 268 272 271 270 270 271 272 273 272 272 269 264 262 266 271 275 280 286 291 293 292 293 294 295 295 295 292 289 286 287 289 290 289 289 291 294 298 300 299 300 302 301 297 294 292 290 292 298 303
194 207 214 212 212 214 209 192 169 201 234 230 233 239 239 245 246 245 250 253 252 250 245 245 249 253 258 264 266 269 271 266 253 251 260 273 274 272 271 269 269 269 268 268 269 269 269 266 262 264 269 272 275 279 282 281 280 281 283 287 290 291 288 287 285 285 287 287 284 282 285 292 299 300 299 302 305 301 298 296 294 293 294 296 300
183 188 195 196 198 201 194 176 152 120 224 224 231 238 238 244 248 249 254 258 257 254 249 246 249 252 260 267 274 280 278 262 256 261 270 278 276 274 273 272 273 272 270 268 268 269 271 271 267 265 269 273 274 275 277 279 280 281 281 282 282 282 282 283 286 288 290 291 290 288 289 293 299 300 299 304 306 301 298 297 294 294 295 294 295
156 162 165 165 177 178 166 156 143 113 161 226 240 247 247 247 245 248 255 259 260 257 250 249 252 252 254 264 288 306 282 247 255 271 282 285 280 274 274 277 280 278 276 275 272 272 278 282 283 283 286 288 289 289 290 289 288 286 279 273 275 279 280 281 284 288 292 294 297 297 295 296 300 301 300 303 303 299 298 298 297 298 299 297 298
142 144 143 138 136 133 123 120 117 104 100 129 244 253 253 244 234 244 262 260 258 259 253 251 254 252 251 254 264 273 261 257 268 279 284 285 284 282 281 282 283 284 288 293 290 286 287 289 293 298 301 301 301 301 299 296 293 286 271 264 271 279 279 279 283 288 290 290 291 293 294 295 299 301 303 305 303 298 298 302 304 305 305 304 304
134 134 135 130 115 103 99 99 93 87 87 82 62 36 307 232 215 228 285 271 259 263 266 265 268 253 242 270 293 289 281 285 290 290 291 291 289 290 288 285 284 286 293 302 306 304 300 296 296 298 298 298 298 296 294 294 293 288 275 266 270 276 276 280 287 291 292 290 289 291 292 293 296 300 304 307 305 302 304 307 306 305 304 302 301
Height
875 876 877 877 878 878 878 878 878 878 879 879 880 881 881 881 881 881 881 881 880 880 879 878 878 878 879 879 879 879 879 879 879 879 880 880 880 879 878 878 878 878 877 877 877 877 876 876 876 875 875 875 874 874 874 873 873 873 872 872 872 871 871 870 869 869 868 867 866 866 865 864 863 863 862 861 861 860 859 858 857 857 856 855 855
875 877 878 878 879 879 879 879 880 880 880 880 880 881 881 881 881 881 881 881 880 880 879 878 878 878 879 879 879 879 879 879 879 879 879 880 880 879 879 878 878 877 877 877 877 876 876 875 875 875 874 874 874 873 873 873 872 872 872 871 871 870 870 869 869 868 867 867 866 865 864 864 863 862 862 861 860 859 858 857 856 855 855 854 854
876 878 879 880 880 880 880 880 881 881 881 881 881 881 881 881 881 881 881 881 880 880 879 879 878 878 878 879 879 879 879 879 879 879 879 880 880 880 879 878 878 878 877 877 877 876 876 875 875 874 874 874 873 873 873 872 872 872 871 871 870 870 870 869 868 868 867 866 866 865 864 863 862 861 861 860 859 858 857 856 855 855 854 853 853
878 879 880 880 880 881 881 881 881 881 881 881 882 882 882 882 882 882 881 881 880 880 880 879 878 878 878 878 879 879 879 879 878 878 879 879 879 879 879 878 878 878 877 877 877 876 876 875 875 874 874 874 873 873 873 872 872 871 871 871 870 870 869 869 868 867 867 866 866 865 864 862 861 861 860 860 859 858 857 856 855 854 853 852 851
879 880 881 881 881 881 881 882 882 882 882 882 882 883 882 883 882 882 882 881 881 880 879 879 879 879 878 878 878 878 878 878 878 878 878 879 879 879 879 879 878 878 878 877 877 876 876 875 875 875 874 874 873 873 873 872 872 871 871 871 870 870 869 869 868 867 867 866 865 864 863 862 861 860 860 859 858 857 856 855 854 853 852 851 851
880 880 881 881 881 881 882 882 882 883 883 883 883 883 883 883 883 882 882 881 881 880 879 879 879 879 878 878 878 878 878 877 878 878 878 878 878 878 878 879 879 879 878 878 877 877 876 876 875 875 874 874 874 873 873 872 872 871 871 870 870 869 869 868 868 867 867 866 865 864 863 862 861 860 859 859 857 856 855 854 853 852 851 850 850
880 880 880 881 881 881 882 882 883 884 884 884 884 884 884 883 883 882 882 881 881 880 880 879 879 878 878 878 878 878 877 878 878 877 878 878 878 878 878 878 878 879 879 878 878 877 877 876 876 876 875 875 874 874 873 873 872 871 871 870 870 869 869 868 868 867 867 866 865 864 862 861 860 860 859 858 857 856 855 854 853 852 851 850 849
880 880 880 881 881 882 883 883 884 884 884 884 884 884 884 884 883 883 882 881 880 880 880 879 878 878 878 878 878 878 877 877 877 877 878 878 878 878 878 878 878 878 878 879 879 878 877 877 876 876 876 875 875 874 874 873 872 872 871 870 870 869 868 868 868 867 866 865 864 863 862 861 860 859 858 857 856 855 854 853 852 851 850 849 848
880 880 881 881 882 882 883 883 884 884 885 885 884 885 884 884 884 883 883 881 880 880 879 878 878 877 876 877 877 877 877 877 877 877 878 878 877 878 878 878 878 878 878 879 879 878 878 877 877 877 876 876 875 874 874 873 872 872 871 870 869 869 868 868 867 867 866 865 864 863 862 861 860 859 858 857 856 855 854 853 852 851 850 849 848
880 880 881 882 882 883 883 884 884 885 885 885 885 885 885 884 884 883 883 882 880 880 879 878 877 875 875 876 877 877 877 877 877 877 877 877 877 878 878 878 878 878 878 878 878 879 878 878 877 877 876 876 875 875 874 873 872 872 871 870 869 869 868 868 867 867 866 865 864 863 862 861 860 859 858 857 856 855 854 853 852 851 850 849 847
881 881 882 882 883 883 884 884 885 885 885 885 885 885 885 885 884 883 883 882 881 880 879 878 876 876 875 876 877 877 877 877 877 877 876 877 877 877 877 878 878 878 878 878 878 878 878 878 877 877 877 876 876 875 874 874 872 872 871 870 870 869 869 868 867 867 866 865 864 863 862 861 860 859 858 857 856 855 854 853 852 851 850 849 847
881 882 882 883 883 884 884 884 885 885 885 885 885 885 885 885 884 883 882 881 881 879 879 877 876 877 876 876 876 876 876 876 876 876 876 876 877 877 877 877 878 878 878 878 878 878 878 878 878 877 877 877 876 875 875 874 873 872 871 870 870 869 869 868 867 867 866 865 864 863 862 861 861 860 859 857 856 855 854 853 852 851 850 848 847
882 882 883 883 883 884 884 885 885 885 885 885 885 885 884 884 884 883 882 881 880 879 879 878 876 876 875 875 875 876 876 876 875 875 875 876 876 877 877 877 877 878 878 878 878 878 878 878 877 877 877 877 876 876 875 874 873 872 871 871 870 870 869 869 868 867 866 865 864 863 862 862 861 860 859 858 857 856 854 853 852 851 850 848 847
881 882 883 883 883 884 884 885 885 885 885 885 885 885 884 884 883 883 882 881 880 879 879 877 875 875 874 874 874 875 875 874 874 874 874 875 876 876 877 876 877 877 878 878 878 878 877 877 877 877 877 877 876 876 876 875 874 873 872 871 871 871 870 869 868 867 866 865 865 864 863 862 861 860 859 858 857 856 855 853 852 851 849 848 846
881 882 882 883 883 884 884 885 885 885 885 885 885 885 885 884 883 883 882 881 880 880 880 878 876 875 875 875 874 874 876 874 873 874 874 874 875 875 876 876 877 878 877 878 878 878 877 877 877 877 877 877 876 876 876 876 875 873 873 872 872 871 870 870 869 868 867 866 865 864 863 862 861 860 859 858 857 856 855 854 852 851 850 848 846
881 881 882 882 883 883 884 885 885 885 885 885 885 885 884 884 883 883 882 881 879 880 881 880 879 877 876 875 873 874 878 876 873 874 874 874 874 875 876 876 877 878 877 877 877 877 877 877 877 877 877 876 876 876 876 876 875 874 873 873 872 872 871 870 869 868 867 867 866 865 864 863 862 861 860 859 857 856 855 854 852 851 850 848 846
880 881 881 882 882 883 884 884 884 885 885 885 885 885 884 884 884 883 883 882 881 880 881 881 881 880 878 877 876 880 880 874 873 876 873 873 875 875 876 876 876 877 877 877 878 877 877 877 877 877 876 876 876 876 876 876 875 875 874 873 872 872 871 871 870 869 868 867 866 865 864 863 862 861 860 859 858 856 855 854 852 851 850 848 847
880 880 881 881 882 883 883 884 884 884 885 885 885 885 884 884 884 884 883 883 883 881 881 881 881 881 879 879 879 881 879 874 876 879 876 874 874 875 876 875 876 877 877 878 878 877 877 876 876 876 876 876 876 876 876 876 875 875 874 874 873 872 872 871 870 869 868 867 866 865 864 863 862 860 859 858 857 856 855 854 852 851 850 848 846
879 880 881 881 882 882 883 883 884 884 884 885 885 885 884 885 884 884 884 884 884 883 881 881 881 881 880 880 879 879 879 878 877 878 879 878 875 873 875 875 875 876 875 876 875 876 878 877 876 876 876 876 876 876 876 876 875 875 874 874 873 872 872 871 870 869 868 867 866 865 863 862 861 860 859 858 857 855 854 853 852 851 849 848 846
879 879 880 881 881 882 882 883 883 884 884 884 885 885 885 885 885 885 885 885 885 885 883 882 881 881 882 881 881 880 880 880 879 878 879 879 877 874 874 874 874 875 875 875 875 877 879 878 877 878 878 877 876 876 876 876 875 875 874 874 873 872 872 871 870 869 868 867 865 864 863 862 860 859 858 857 856 855 854 852 851 850 849 848 846
879 879 880 881 881 882 882 883 883 883 884 884 884 885 885 885 885 885 885 885 885 885 885 884 882 882 883 883 882 882 881 880 880 879 877 878 878 874 874 874 874 876 875 875 875 876 878 879 878 878 878 877 876 876 876 876 875 875 875 873 873 872 871 870 869 868 867 866 865 863 862 861 860 858 857 856 855 854 853 852 850 849 848 847 846
878 879 880 880 881 882 882 882 883 883 884 884 884 885 885 885 886 886 886 886 886 886 886 886 885 884 884 884 883 883 882 881 879 879 878 878 877 873 873 874 874 877 877 876 877 876 876 877 876 876 877 877 877 877 876 875 875 875 874 873 872 871 870 870 869 867 866 865 864 863 861 860 859 858 856 855 854 853 852 851 849 848 847 846 845
878 879 879 880 881 881 882 882 883 883 883 884 884 884 884 885 886 886 886 886 886 886 886 886 886 885 885 884 884 883 883 882 880 881 880 879 878 875 874 874 874 876 877 878 878 877 876 876 876 877 879 879 878 877 876 875 874 874 873 872 871 871 870 869 868 866 865 864 863 862 860 859 858 857 856 854 853 852 851 850 849 847 846 845 844
877 878 879 880 880 881 881 882 882 883 883 883 884 884 884 885 885 886 886 886 886 886 886 886 886 886 885 884 884 883 883 883 882 882 882 882 882 878 876 877 876 875 878 879 878 877 877 877 876 878 880 880 879 877 875 874 873 873 872 871 870 869 868 867 866 865 864 863 862 861 859 858 857 856 855 854 852 851 850 849 848 847 845 844 843
877 878 878 879 880 880 881 881 882 883 883 883 883 884 884 884 885 885 885 886 886 886 886 886 886 886 885 885 884 884 883 883 883 882 882 883 882 880 880 881 878 876 878 880 879 877 876 877 877 878 880 881 879 876 875 874 872 871 871 870 869 868 867 866 865 864 863 862 861 859 858 857 856 855 854 853 852 850 849 848 847 846 845 843 842
876 877 878 878 879 880 880 881 881 882 882 883 883 883 884 884 885 885 885 885 886 886 886 886 886 886 886 886 885 884 884 884 883 883 882 882 882 882 883 883 880 877 877 879 878 876 876 877 877 877 880 880 878 875 874 873 871 870 870 869 868 867 866 865 864 863 862 861 859 858 857 856 855 854 853 852 850 849 848 847 846 845 844 842 841
875 876 877 878 879 879 880 881 881 882 882 882 883 883 883 884 884 885 885 885 885 885 886 885 885 885 886 886 885 885 885 884 884 883 883 883 883 884 884 884 884 881 878 878 877 876 875 876 876 877 878 879 877 874 873 872 871 870 869 869 868 867 865 865 864 862 861 860 858 857 855 854 853 852 851 850 849 848 847 846 845 844 843 841 840
875 876 877 877 878 879 880 880 881 881 882 882 882 883 883 884 884 884 884 885 885 885 885 885 885 885 885 885 885 885 885 884 884 884 884 885 885 885 885 885 887 886 883 880 879 877 875 875 874 875 877 877 875 873 872 871 870 869 869 868 868 867 865 864 863 861 860 859 857 855 854 853 852 851 850 849 848 847 846 845 844 842 841 840 839
875 876 876 877 878 878 879 880 880 881 881 882 882 882 883 883 884 884 884 884 884 885 885 885 885 885 885 885 885 885 885 885 885 884 884 885 885 885 885 885 886 886 885 884 881 877 876 875 874 873 875 875 874 872 871 870 869 869 869 868 867 866 864 863 862 860 859 857 856 854 853 852 851 850 848 847 846 845 844 843 842 841 840 839 837
874 875 876 876 877 877 878 879 879 880 880 881 881 882 882 883 883 883 884 884 884 884 884 884 884 884 884 884 884 884 884 884 884 884 884 884 884 884 884 884 885 884 884 885 883 878 877 876 874 873 874 874 873 871 870 869 868 868 868 867 866 864 863 861 860 859 858 856 854 853 852 850 849 848 847 846 845 844 843 841 840 839 838 837 836
874 874 875 875 876 876 877 878 878 879 879 880 880 881 881 882 882 883 883 883 884 884 884 884 884 884 884 884 884 884 884 884 884 883 883 883 883 883 883 883 883 883 883 883 882 880 878 876 875 874 873 873 872 871 870 869 867 866 866 866 864 863 861 859 858 857 856 855 853 852 850 849 848 847 846 845 843 842 841 840 839 837 836 835 834
873 873 874 874 875 876 876 877 877 878 879 879 880 880 880 881 881 882 882 882 883 883 883 883 883 883 883 883 883 883 883 883 883 883 882 883 883 882 882 882 882 882 882 882 881 879 878 877 875 874 873 872 871 870 869 868 867 866 865 864 863 862 860 858 857 856 855 854 852 851 849 848 847 845 844 843 842 841 839 838 837 836 834 833 832
871 872 873 874 874 875 875 876 877 877 878 879 879 879 880 880 880 881 881 881 882 882 882 882 882 882 882 882 882 882 882 882 882 882 881 881 881 881 881 881 881 881 880 881 880 878 877 876 875 874 873 872 871 870 869 868 866 865 864 863 862 860 859 857 856 855 853 853 852 850 848 847 846 844 843 842 840 839 838 837 835 834 833 831 830
870 871 872 872 873 874 875 875 876 877 877 878 878 879 879 879 879 880 880 880 881 881 881 881 881 881 881 881 881 881 881 881 881 881 880 880 880 879 879 879 879 879 879 879 879 877 876 875 874 873 872 871 870 869 869 867 866 865 863 862 861 859 858 857 856 854 852 852 851 849 848 846 845 843 842 841 839 838 836 835 834 832 831 830 828
869 870 870 871 872 873 874 875 875 876 876 877 877 878 878 879 879 879 879 879 880 880 880 880 880 880 880 880 880 880 880 880 880 880 880 879 879 879 879 879 879 878 878 878 878 877 875 874 873 872 871 870 870 868 868 866 865 864 862 861 860 858 857 856 855 853 851 851 850 849 847 845 844 843 841 840 838 837 835 833 832 831 829 828 826
867 868 869 870 871 872 873 873 874 875 875 875 876 876 877 877 878 878 878 879 879 879 879 879 879 879 879 879 879 879 879 879 879 879 878 878 879 878 878 878 878 877 877 877 877 876 875 873 873 872 870 870 869 868 867 865 864 863 862 860 859 858 857 855 854 852 850 849 848 847 846 844 843 841 840 839 837 836 834 832 831 829 828 826 824
866 867 868 869 870 871 871 872 873 873 874 874 875 875 875 876 876 877 877 877 877 877 878 878 877 878 878 878 878 878 878 878 877 877 877 877 877 877 877 876 876 876 876 876 875 875 874 873 871 871 870 868 867 867 866 864 863 862 861 859 858 857 856 854 853 851 849 848 846 846 844 843 841 840 838 837 836 834 833 831 830 828 826 825 823
864 865 866 868 869 869 870 871 871 872 872 873 874 874 874 875 875 875 875 876 876 876 876 876 876 876 876 876 877 877 877 876 876 876 876 876 876 876 875 875 875 875 874 874 874 873 872 871 870 869 868 867 866 865 864 864 862 861 859 858 857 856 855 853 852 851 849 847 846 845 843 842 840 838 836 835 833 832 831 829 828 826 825 823 822
863 864 865 866 867 868 869 870 870 871 871 872 873 873 873 873 874 874 874 874 874 874 874 874 875 875 875 875 875 875 875 875 875 875 875 875 875 874 874 874 874 873 873 872 872 871 870 869 868 867 866 865 865 864 863 862 861 860 859 857 856 855 854 852 851 850 848 847 845 843 841 840 838 837 834 833 831 829 828 827 826 824 823 822 820
862 862 863 864 865 866 867 868 869 870 870 871 871 872 872 872 872 873 873 873 873 873 873 873 873 873 873 873 873 873 873 874 874 874 874 873 873 873 873 872 872 872 871 871 870 870 869 868 866 865 864 864 863 862 862 861 860 859 858 857 855 854 853 851 850 849 847 845 843 841 840 838 836 835 833 831 829 827 826 824 823 822 821 820 819
861 862 862 863 864 865 866 867 868 868 869 869 870 870 870 871 871 871 871 872 872 871 872 871 872 871 871 871 871 871 871 872 872 872 872 872 872 872 872 871 871 871 870 870 869 868 868 866 865 864 863 863 861 861 860 859 858 857 856 856 854 852 851 850 848 848 846 844 842 840 839 838 835 833 831 829 827 825 823 822 821 820 818 818 817
860 861 862 863 863 864 865 866 867 867 868 868 868 869 869 870 870 870 870 870 870 871 871 870 870 870 869 869 869 869 870 870 870 870 870 870 870 870 870 870 870 870 869 869 868 867 867 865 864 863 862 861 860 859 859 858 857 855 855 854 853 851 850 848 846 846 844 843 840 837 836 836 833 830 828 827 825 823 822 820 819 818 817 816 815
859 860 861 862 863 863 864 864 865 866 866 866 866 867 868 869 869 869 869 869 869 869 869 869 869 868 868 867 867 867 867 868 868 868 868 868 868 868 868 868 868 868 868 867 867 866 865 864 863 862 861 859 859 858 858 856 855 854 854 853 852 850 849 847 844 843 842 841 839 835 833 832 831 828 825 824 822 821 819 818 817 816 815 813 812
858 859 860 861 862 862 862 863 863 864 863 863 864 866 867 867 867 868 868 868 867 867 867 867 867 866 866 866 865 865 865 865 866 866 866 866 866 866 866 866 866 866 865 865 865 865 864 863 862 861 860 859 858 858 857 855 854 854 853 852 851 849 848 846 843 841 840 839 837 834 830 829 828 826 823 821 820 818 816 815 814 813 812 811 810
856 857 858 859 860 861 861 862 862 862 862 862 863 864 865 865 866 866 866 866 865 865 865 865 865 865 865 865 865 864 864 864 865 865 865 864 864 864 863 863 863 863 863 863 863 863 862 862 860 859 859 858 857 856 856 855 854 853 851 850 849 848 846 844 842 839 838 837 835 832 828 827 826 823 820 819 817 816 814 812 811 810 809 808 808
854 856 857 858 858 860 860 861 861 861 861 861 862 862 863 863 864 864 864 864 864 863 864 863 863 863 863 864 863 863 863 863 863 863 863 863 863 862 862 861 860 860 860 860 860 859 859 859 858 857 856 856 855 854 854 854 852 851 849 847 846 845 844 842 840 838 836 835 834 830 826 824 823 821 818 817 815 813 811 810 809 807 806 806 805
849 852 854 856 857 858 859 860 860 860 860 860 861 861 861 862 862 862 863 863 862 862 862 862 862 862 862 862 862 862 862 862 862 861 862 862 861 861 860 859 859 858 858 857 857 857 857 856 855 855 854 854 853 852 852 851 850 849 847 845 844 843 841 839 837 835 833 832 831 829 824 821 821 820 816 815 813 811 809 808 806 805 804 803 803
846 849 852 854 855 857 858 859 860 860 859 859 859 859 860 860 860 861 861 861 861 861 861 861 861 860 860 860 861 861 861 860 859 859 859 859 859 859 858 858 857 856 855 855 854 854 854 853 853 852 851 851 850 849 849 848 847 845 844 843 842 840 838 835 833 831 830 828 829 827 823 819 820 818 815 813 812 809 807 806 805 803 802 801 801
846 848 851 853 855 856 857 858 859 859 858 858 858 858 859 859 859 860 860 860 860 860 860 860 860 859 859 859 859 859 859 858 858 858 858 857 857 857 856 856 855 854 853 852 852 851 851 850 849 849 848 847 846 845 844 844 843 842 841 839 838 837 835 832 829 827 827 826 826 826 822 818 818 817 814 812 810 807 805 803 802 801 800 799 798
846 848 850 852 854 855 857 858 859 859 858 858 858 858 858 858 858 859 860 859 859 859 859 859 859 858 858 858 858 858 857 857 857 857 857 857 856 856 855 854 853 852 851 851 850 850 849 848 847 846 845 844 842 841 840 839 839 839 837 836 835 834 831 828 826 826 824 823 823 823 821 818 817 815 813 810 807 805 803 801 800 800 799 797 796
847 849 851 852 854 856 858 860 860 860 859 858 858 857 857 857 858 858 858 858 858 858 858 858 858 858 857 857 857 857 856 856 857 856 856 856 856 855 854 853 852 851 850 849 849 849 848 847 846 845 844 842 841 839 837 836 835 835 833 832 832 831 828 827 826 826 824 822 821 821 819 817 815 814 812 810 805 801 801 800 799 798 797 796 795